Temp
10 10 10 9 9 9 9 8 7 7 7 7 6 6 6 6 6 6 6 6 6 6
9 9 8 8 8 7 7 7 6 6 6 6 6 6 5 6 6 6 6 6 6 5
8 8 7 7 7 6 6 6 6 6 5 5 5 5 5 5 5 5 5 5 5 5
7 7 7 6 6 5 5 5 5 4 4 5 4 4 4 4 4 4 4 4 4 4
6 6 6 5 5 5 5 4 4 4 4 4 4 3 3 3 3 3 4 4 3 3
6 5 4 4 4 4 4 3 3 3 3 3 2 2 2 3 3 3 3 3 2 2
5 4 4 4 3 3 3 3 2 2 2 2 2 2 2 2 2 2 2 2 2 1
4 3 3 3 3 2 2 2 2 1 2 2 1 2 0 0 1 1 1 1 1 1
3 3 3 2 2 2 2 2 1 1 1 1 1 0 -1 -1 -0 0 1 1 1 1
2 2 2 2 2 2 1 1 1 1 1 1 0 -0 -2 -2 -1 -0 0 0 0 0
2 2 2 2 2 2 1 1 1 1 0 -0 -0 -1 -2 -2 -1 -0 -0 -0 -0 -0
1 1 1 1 1 1 1 1 0 -0 -0 -1 -1 -2 -3 -2 -1 -1 -0 -0 -0 -1
1 1 1 1 1 0 0 -0 -0 -0 -1 -1 -2 -2 -2 -2 -2 -1 -1 -1 -1 -1
1 0 0 0 -0 -0 -0 -1 -1 -1 -1 -1 -1 -2 -2 -2 -2 -2 -2 -2 -2 -1
Height
787 787 787 786 784 783 782 781 778 776 774 771 768 764 761 757 754 750 746 742 738 733
788 788 787 786 785 783 782 780 778 775 772 769 766 762 759 755 751 747 743 738 734 729
789 788 788 788 786 784 782 780 777 774 771 767 764 761 757 752 748 744 739 735 730 725
789 788 788 788 786 784 782 779 776 773 770 766 762 759 754 750 745 740 735 731 725 720
789 789 789 788 785 783 781 779 775 772 769 765 760 756 751 745 741 736 731 725 721 715
790 789 788 786 783 782 780 777 774 771 767 762 757 752 747 743 737 732 726 721 715 711
790 789 787 784 783 781 779 776 772 768 764 760 754 749 744 739 732 727 721 716 711 706
790 788 785 784 782 780 776 773 769 765 761 756 750 745 740 735 728 722 716 710 705 701
788 786 784 783 780 776 773 770 766 761 757 751 746 741 736 731 724 718 711 704 699 694
785 785 784 781 777 774 770 766 761 757 752 747 742 737 732 727 720 713 707 701 694 687
785 784 782 779 775 770 766 762 758 753 748 743 737 732 727 721 714 708 702 696 690 683
784 782 779 775 771 767 763 758 753 749 744 738 732 727 722 717 710 703 696 691 684 679
782 780 776 773 769 765 761 755 750 744 739 733 727 722 718 714 707 698 691 685 679 673
779 777 774 770 766 762 756 751 745 740 734 729 724 718 714 710 704 696 687 679 671 666
Wind_Speed
10 9 8 9 9 9 10 10 13 14 14 14 14 15 16 16 16 16 18 17 19 20
9 9 9 9 8 8 9 11 12 13 14 15 16 16 17 17 18 18 18 20 20 22
9 9 9 9 9 9 9 10 12 14 15 16 17 18 18 18 19 19 21 21 23 23
7 8 7 7 8 9 10 11 13 14 16 17 18 19 19 20 19 21 23 23 24 26
6 6 6 7 8 10 11 12 13 15 16 17 18 19 20 20 22 24 25 26 26 27
5 5 6 8 10 10 11 13 14 14 16 18 19 20 20 21 25 25 26 27 27 28
4 5 7 8 9 10 11 13 14 16 17 19 20 21 20 25 26 27 27 28 27 29
5 6 8 9 11 11 13 14 15 17 18 19 20 20 24 25 28 28 29 28 29 28
6 8 9 10 12 14 14 15 16 18 19 21 21 22 24 26 28 28 29 30 30 30
8 9 11 12 13 14 16 17 19 20 21 23 24 23 25 26 27 28 28 29 31 32
8 10 12 14 15 16 17 19 20 21 22 24 24 23 24 26 28 29 28 29 29 32
8 11 14 15 17 18 19 21 22 22 23 24 25 23 23 26 29 29 30 30 30 32
10 12 15 16 18 19 20 22 22 23 22 22 24 22 23 27 28 30 30 32 32 33
11 14 15 17 18 19 21 22 23 23 22 20 20 23 26 27 29 29 31 31 32 32
Wind_Direction
75 64 50 37 28 19 7 358 354 354 351 346 343 339 335 329 323 320 318 311 310 306
63 50 38 29 21 17 6 355 350 348 344 340 339 336 331 324 321 320 317 313 310 308
55 43 30 14 13 10 1 352 347 345 341 338 334 331 326 321 320 317 316 312 308 305
52 39 28 10 5 360 353 348 345 340 337 332 327 324 322 320 318 316 313 310 308 307
42 28 17 7 0 356 349 342 340 336 329 324 322 322 322 320 318 314 312 310 309 308
30 14 9 360 358 348 340 337 334 329 325 322 321 321 320 318 316 313 311 310 310 309
14 5 360 356 346 339 334 329 329 327 323 321 319 320 319 319 316 313 311 310 309 309
357 356 357 348 338 331 330 327 323 321 321 320 319 318 319 319 316 314 312 310 310 309
356 354 347 337 332 330 324 322 322 322 321 319 316 315 318 319 316 313 313 313 312 310
359 343 329 330 326 323 322 321 322 320 319 317 315 315 318 319 317 314 314 312 312 312
345 327 327 325 323 323 322 320 319 317 316 313 313 316 320 323 319 316 315 312 313 312
331 325 322 324 324 322 319 316 317 315 314 314 315 321 323 323 321 317 315 316 315 312
323 318 321 319 320 315 314 312 314 314 315 316 316 320 320 323 321 316 316 316 314 314
319 319 317 315 314 314 315 314 315 317 321 319 319 318 321 322 322 319 316 314 314 314